Overview Statistics Trail Chart Weather Telemetry Raw packets
 

This is the latest recevied weather packets stored in our database for station/object G4KVI. If no packets are shown the sender has not sent any weather packets the latest 10 day(s).

<< 2 3 4 5 6 7 8 >>
Time Temp. Humidity Pressure Rain* Wind** Luminosity Snow
1788636603 15° C 75% 1027.3 hPa 0 mm - 0 W/m² -
1788636303 15° C 74% 1027.5 hPa 0 mm - 0 W/m² -
1788636003 15° C 73% 1027.1 hPa 0 mm - 0 W/m² -
1788635703 15.56° C 72% 1027.4 hPa 0 mm - 0 W/m² -
1788635403 15.56° C 71% 1027.3 hPa 0 mm - 0 W/m² -
1788635103 15.56° C 70% 1027.5 hPa 0 mm - 0 W/m² -
1788634803 16.11° C 69% 1027.3 hPa 0 mm - 0 W/m² -
1788634505 16.11° C 69% 1027.3 hPa 0 mm - 1 W/m² -
1788634205 16.11° C 69% 1027.3 hPa 0 mm - 2 W/m² -
1788633905 16.11° C 68% 1027.2 hPa 0 mm - 4 W/m² -
1788633605 16.67° C 67% 1027.3 hPa 0 mm - 5 W/m² -
1788633305 16.67° C 67% 1027.1 hPa 0 mm - 7 W/m² -
1788633005 17.22° C 66% 1027.2 hPa 0 mm - 9 W/m² -
1788632705 17.22° C 64% 1027 hPa 0 mm - 11 W/m² -
1788632405 17.78° C 63% 1027.2 hPa 0 mm - 14 W/m² -
1788632105 17.78° C 62% 1027.4 hPa 0 mm - 17 W/m² -
1788631805 18.33° C 61% 1027.2 hPa 0 mm - 22 W/m² -
1788631505 18.33° C 61% 1027.4 hPa 0 mm - 26 W/m² -
1788631205 18.33° C 60% 1026.9 hPa 0 mm - 30 W/m² -
1788630905 18.33° C 61% 1027.1 hPa 0 mm - 34 W/m² -
1788630605 18.33° C 59% 1027.2 hPa 0 mm - 35 W/m² -
1788630305 18.89° C 59% 1027.1 hPa 0 mm - 40 W/m² -
1788630005 18.89° C 58% 1027.4 hPa 0 mm - 56 W/m² -
1788629705 19.44° C 57% 1027.2 hPa 0 mm - 68 W/m² -
1788629405 19.44° C 57% 1027.3 hPa 0 mm - 72 W/m² -

* Rain latest hour (hover to see other rain measurements)
** Current wind speed in m/s (hover to see current wind gust speed)